ProjectID,Date,Electric Generation,Electric Utility Import,Facility Electric Load
,YYYY-MM-DD,kW,kW,kW
147,2013-10-01,2.8000000000000003,,9.3875
147,2013-10-02,0.7791666666666667,,3.5749999999999997
147,2013-10-03,19.654166666666665,,35.86666666666667
147,2013-10-04,49.73749999999999,,103.87083333333332
147,2013-10-05,37.0375,,77.16666666666667
147,2013-10-06,7.283333333333332,,14.774999999999999
147,2013-10-07,24.149999999999995,,50.50416666666666
147,2013-10-08,59.81249999999999,,125.57499999999999
147,2013-10-09,47.175000000000004,,109.325
147,2013-10-10,0.020833333333333332,,5.208333333333333
147,2013-10-11,0.020833333333333332,,5.333333333333333
147,2013-10-12,0.024999999999999998,,19.60833333333333
147,2013-10-13,0.024999999999999998,,17.35833333333333
147,2013-10-14,0.020833333333333332,,18.18333333333333
147,2013-10-15,94.3,,175.35
147,2013-10-16,46.70416666666668,,87.25000000000001
147,2013-10-17,55.720833333333324,,103.21249999999999
147,2013-10-18,95.99583333333332,,178.7875
147,2013-10-19,44.98333333333333,,84.22916666666666
147,2013-10-20,95.12083333333334,,176.97500000000002
147,2013-10-21,88.3625,,160.475
147,2013-10-22,53.17083333333333,,104.14166666666665
147,2013-10-23,23.024999999999995,,61.74166666666666
147,2013-10-24,83.27083333333333,,174.21666666666664
147,2013-10-25,33.6,,88.86666666666667
147,2013-10-26,69.63333333333333,,187.69583333333333
147,2013-10-27,88.87083333333334,,207.94166666666666
147,2013-10-28,83.24166666666666,,194.6625
147,2013-10-29,52.395833333333336,,161.59166666666667
147,2013-10-30,30.20833333333333,,72.5
147,2013-10-31,17.191666666666663,,40.483333333333334
147,2013-11-01,29.462500000000002,,68.80416666666667
147,2013-11-02,63.04583333333333,,146.82083333333333
147,2013-11-03,55.94166666666666,,130.85833333333335
147,2013-11-04,79.86666666666667,,188.20416666666665
147,2013-11-05,46.154166666666676,,107.79583333333335
147,2013-11-06,61.27083333333332,,142.7625
147,2013-11-07,12.445833333333333,,29.1375
147,2013-11-08,62.775,,146.84166666666667
147,2013-11-09,51.20833333333332,,120.1
147,2013-11-10,61.70416666666665,,143.74166666666667
147,2013-11-11,37.575,,75.75416666666666
147,2013-11-12,22.920833333333334,,54.295833333333334
147,2013-11-13,78.22083333333335,,180.08750000000003
147,2013-11-14,75.0125,,168.45416666666665
147,2013-11-15,50.7125,,118.78333333333333
147,2013-11-16,59.22916666666668,,137.95416666666668
147,2013-11-17,15.620833333333332,,36.574999999999996
147,2013-11-18,65.95416666666667,,108.49583333333334
147,2013-11-19,73.31666666666668,,137.35833333333335
147,2013-11-20,63.40000000000001,,146.46666666666667
147,2013-11-21,57.82916666666666,,135.14166666666665
147,2013-11-22,19.5125,,45.75416666666666
147,2013-11-23,58.67916666666667,,137.55833333333334
147,2013-11-24,70.1125,,161.0375
147,2013-11-25,67.07083333333334,,153.70416666666665
147,2013-11-26,17.187500000000004,,40.61666666666667
147,2013-11-27,7.541666666666667,,17.541666666666668
147,2013-11-28,69.16666666666667,,157.98333333333335
147,2013-11-29,54.958333333333336,,127.73333333333332
147,2013-11-30,57.36250000000001,,132.40000000000003
147,2013-12-01,50.262499999999996,,116.24583333333334
147,2013-12-02,28.495833333333334,,66.975
147,2013-12-03,49.84583333333334,,114.69583333333335
147,2013-12-04,39.2125,,91.25
147,2013-12-05,10.429166666666665,,24.520833333333332
147,2013-12-06,5.566666666666667,,12.8375
147,2013-12-07,45.75,,105.25
147,2013-12-08,15.120833333333335,,35.7625
147,2013-12-09,11.104166666666664,,26.22083333333333
147,2013-12-10,0.7000000000000001,,1.5750000000000002
147,2013-12-11,10.404166666666667,,22.775
147,2013-12-12,21.433333333333334,,43.99583333333334
147,2013-12-13,36.74583333333333,,79.9875
147,2013-12-14,3.283333333333333,,10.541666666666666
147,2013-12-15,30.35000000000001,,77.53333333333335
147,2013-12-16,47.925000000000004,,112.54166666666666
147,2013-12-17,0.30416666666666664,,0.8041666666666667
147,2013-12-18,2.0333333333333337,,6.637500000000001
147,2013-12-19,22.52916666666667,,58.35
147,2013-12-20,34.45416666666667,,85.26250000000002
147,2013-12-21,43.237500000000004,,99.6875
147,2013-12-22,17.23333333333333,,40.74166666666667
147,2013-12-23,4.470833333333332,,10.204166666666666
147,2013-12-24,48.4125,,112.63333333333333
147,2013-12-25,54.300000000000004,,125.4625
147,2013-12-26,29.454166666666662,,67.69166666666666
147,2013-12-27,44.6,,103.80416666666667
147,2013-12-28,47.50416666666666,,108.11666666666667
147,2013-12-29,5.820833333333333,,13.524999999999999
147,2013-12-30,18.795833333333334,,45.3
147,2013-12-31,37.762499999999996,,88.57916666666665
147,2014-01-01,35.233333333333334,,82.44166666666666
147,2014-01-02,2.6541666666666663,,7.387499999999999
147,2014-01-03,17.391666666666666,,53.7375
147,2014-01-04,21.370833333333334,,67.2875
147,2014-01-05,4.208333333333334,,12.512500000000001
147,2014-01-06,10.074999999999998,,23.604166666666664
147,2014-01-07,67.875,,155.69583333333333
147,2014-01-08,60.783333333333324,,139.72083333333333
147,2014-01-09,63.5375,,145.52083333333334
147,2014-01-10,10.270833333333334,,17.25
147,2014-01-11,7.437499999999999,,12.445833333333333
147,2014-01-12,32.27916666666666,,54.012499999999996
147,2014-01-13,49.67083333333333,,82.94999999999999
147,2014-01-14,5.025,,9.216666666666667
147,2014-01-15,50.65,,117.12083333333334
147,2014-01-16,19.370833333333334,,46.03333333333333
147,2014-01-17,61.425000000000004,,141.27083333333334
147,2014-01-18,21.354166666666668,,49.958333333333336
147,2014-01-19,50.037499999999994,,116.35833333333333
147,2014-01-20,27.591666666666665,,64.96666666666667
147,2014-01-21,1.0083333333333333,,2.7375
147,2014-01-22,24.57916666666667,,82.87083333333334
147,2014-01-23,27.483333333333334,,93.41666666666667
147,2014-01-24,35.833333333333336,,109.22083333333333
147,2014-01-25,17.45,,48.9
147,2014-01-26,37.11666666666667,,98.9625
147,2014-01-27,32.40833333333334,,83.1
147,2014-01-28,55.883333333333326,,139.45
147,2014-01-29,18.779166666666665,,36.920833333333334
147,2014-01-30,67.22500000000001,,160.17083333333335
147,2014-01-31,34.395833333333336,,84.25833333333334
147,2014-02-01,54.62916666666666,,131.57916666666665
147,2014-02-02,51.63333333333333,,122.42500000000001
147,2014-02-03,0.0,,0.0
147,2014-02-04,0.11666666666666665,,0.11666666666666665
147,2014-02-05,0.0,,0.0
147,2014-02-06,0.16666666666666666,,0.33749999999999997
147,2014-02-07,0.19583333333333333,,0.37083333333333335
147,2014-02-08,0.1125,,0.2833333333333333
147,2014-02-09,0.16666666666666666,,0.4666666666666667
147,2014-02-10,0.12916666666666665,,0.5791666666666666
147,2014-02-11,0.22083333333333333,,0.775
147,2014-02-12,0.14166666666666666,,0.5375
147,2014-02-13,0.0,,0.0
147,2014-02-14,0.05833333333333333,,0.5958333333333333
147,2014-02-15,0.0,,0.05416666666666667
147,2014-02-16,0.26666666666666666,,0.5458333333333334
147,2014-02-17,0.36666666666666664,,1.5125
147,2014-02-18,0.004166666666666667,,0.1125
147,2014-02-19,0.05416666666666667,,0.4708333333333333
147,2014-02-20,1.2541666666666667,,4.975
147,2014-02-21,1.05,,3.333333333333333
147,2014-02-22,49.42499999999999,,157.17083333333332
147,2014-02-23,85.49583333333334,,205.41666666666669
147,2014-02-24,95.52083333333331,,227.8875
147,2014-02-25,65.3625,,155.1
147,2014-02-26,56.537499999999994,,131.7875
147,2014-02-27,81.89166666666667,,192.32083333333333
147,2014-02-28,118.075,,276.15000000000003
147,2014-03-01,98.94583333333333,,232.84583333333333
147,2014-03-02,21.025,,49.94166666666666
147,2014-03-03,25.85833333333333,,74.49583333333332
147,2014-03-04,78.63333333333333,,192.81666666666666
147,2014-03-05,75.6625,,180.63333333333333
147,2014-03-06,116.88333333333333,,276.79583333333335
147,2014-03-07,46.11249999999999,,110.79583333333332
147,2014-03-08,105.69583333333334,,249.95416666666665
147,2014-03-09,117.59583333333332,,278.77916666666664
147,2014-03-10,62.754166666666656,,148.5375
147,2014-03-11,102.79166666666667,,243.46666666666664
147,2014-03-12,37.16666666666668,,89.20000000000002
147,2014-03-13,123.89583333333331,,292.7208333333333
147,2014-03-14,97.05833333333334,,229.025
147,2014-03-15,106.24583333333334,,250.05833333333334
147,2014-03-16,112.17083333333336,,267.1541666666667
147,2014-03-17,77.35416666666666,,184.4125
147,2014-03-18,141.14166666666665,,333.6833333333333
147,2014-03-19,49.43749999999999,,119.88333333333333
147,2014-03-20,102.89999999999999,,242.50833333333333
147,2014-03-21,142.6,,335.60833333333335
147,2014-03-22,100.24583333333332,,236.0625
147,2014-03-23,65.1375,,155.12916666666666
147,2014-03-24,137.62499999999997,,326.36249999999995
147,2014-03-25,89.94999999999999,,214.29166666666663
147,2014-03-26,145.00833333333335,,340.9166666666667
147,2014-03-27,134.42916666666665,,318.6625
147,2014-03-28,31.70416666666667,,75.22500000000001
147,2014-03-29,24.245833333333337,,57.712500000000006
147,2014-03-30,35.666666666666664,,85.51249999999999
147,2014-03-31,112.16250000000001,,264.0833333333333
147,2014-04-01,133.07083333333335,,316.00416666666666
147,2014-04-02,58.074999999999996,,136.92916666666667
147,2014-04-03,137.5083333333333,,325.7458333333333
147,2014-04-04,20.429166666666667,,48.47083333333333
147,2014-04-05,139.8875,,329.6583333333333
147,2014-04-06,159.4458333333333,,375.5625
147,2014-04-07,54.67499999999999,,130.27916666666667
147,2014-04-08,84.46249999999999,,199.18333333333334
147,2014-04-09,148.37916666666666,,351.1333333333333
147,2014-04-10,164.00833333333333,,384.8125
147,2014-04-11,96.89999999999999,,229.32083333333333
147,2014-04-12,150.13750000000002,,355.02083333333337
147,2014-04-13,133.71666666666667,,314.67083333333335
147,2014-04-14,126.27916666666665,,298.8125
147,2014-04-15,19.12916666666667,,45.054166666666674
147,2014-04-16,156.3375,,368.4583333333333
147,2014-04-17,146.88750000000002,,350.45000000000005
147,2014-04-18,104.78750000000001,,249.73333333333335
147,2014-04-19,163.20833333333337,,387.1916666666667
147,2014-04-20,168.74166666666667,,398.7458333333334
147,2014-04-21,166.4125,,393.6375
147,2014-04-22,115.34166666666664,,273.3333333333333
147,2014-04-23,106.07499999999999,,253.5375
147,2014-04-24,180.10416666666666,,427.4458333333333
147,2014-04-25,157.22500000000002,,373.22916666666674
147,2014-04-26,125.72083333333335,,299.2
147,2014-04-27,141.64166666666665,,340.9333333333333
147,2014-04-28,166.0583333333333,,395.1333333333333
147,2014-04-29,31.370833333333337,,74.61666666666667
147,2014-04-30,13.258333333333335,,31.3125
147,2014-05-01,118.39999999999998,,280.09166666666664
147,2014-05-02,130.23333333333332,,308.5541666666667
147,2014-05-03,133.84583333333333,,317.95
147,2014-05-04,109.34166666666665,,259.6958333333333
147,2014-05-05,177.24999999999997,,419.67083333333335
147,2014-05-06,137.58333333333334,,327.6541666666667
147,2014-05-07,160.9625,,381.69166666666666
147,2014-05-08,27.27916666666667,,64.89583333333334
147,2014-05-09,29.899999999999995,,64.30833333333332
147,2014-05-10,113.74583333333334,,269.89166666666665
147,2014-05-11,178.42083333333338,,421.02500000000003
147,2014-05-12,136.32500000000002,,324.0375
147,2014-05-13,157.47083333333333,,374.8125
147,2014-05-14,106.53750000000001,,251.6875
147,2014-05-15,42.99166666666667,,101.22916666666667
147,2014-05-16,45.07916666666667,,106.62916666666668
147,2014-05-17,173.57499999999996,,409.04166666666663
147,2014-05-18,149.52916666666664,,357.3083333333333
147,2014-05-19,152.77083333333331,,366.44166666666666
147,2014-05-20,177.47916666666666,,422.09999999999997
147,2014-05-21,96.95416666666667,,231.425
147,2014-05-22,30.949999999999992,,73.00416666666666
147,2014-05-23,103.77916666666668,,246.8625
147,2014-05-24,86.125,,206.64999999999998
147,2014-05-25,174.04583333333332,,413.1166666666667
147,2014-05-26,163.66666666666666,,387.0583333333333
147,2014-05-27,103.3125,,246.55416666666667
147,2014-05-28,47.725,,113.8125
147,2014-05-29,171.79166666666663,,409.83333333333326
147,2014-05-30,149.12916666666663,,355.1333333333333
147,2014-05-31,145.00833333333335,,346.87916666666666
147,2014-06-01,181.3375,,428.73333333333335
147,2014-06-02,181.8791666666666,,429.01666666666665
147,2014-06-03,154.77083333333334,,365.95416666666665
147,2014-06-04,131.4958333333333,,310.0833333333333
147,2014-06-05,88.69583333333333,,209.35416666666669
147,2014-06-06,157.0375,,375.6666666666667
147,2014-06-07,183.24999999999991,,435.5583333333332
147,2014-06-08,166.20833333333334,,394.4041666666667
147,2014-06-09,17.683333333333334,,41.400000000000006
147,2014-06-10,89.72083333333335,,213.71250000000003
147,2014-06-11,78.39583333333333,,187.08749999999998
147,2014-06-12,46.16666666666666,,110.56666666666665
147,2014-06-13,102.44583333333333,,243.27083333333334
147,2014-06-14,159.55416666666667,,379.1958333333333
147,2014-06-15,180.0833333333333,,427.7249999999999
147,2014-06-16,179.53333333333333,,425.2
147,2014-06-17,143.7625,,338.325
147,2014-06-18,175.89999999999998,,417.3416666666667
147,2014-06-19,79.05833333333334,,186.99166666666667
147,2014-06-20,177.30416666666665,,423.23333333333335
147,2014-06-21,185.7166666666667,,442.09583333333336
147,2014-06-22,150.63750000000002,,357.9791666666667
147,2014-06-23,157.49166666666665,,373.85
147,2014-06-24,152.90416666666667,,362.6791666666667
147,2014-06-25,115.63333333333334,,270.975
147,2014-06-26,138.54583333333335,,328.07500000000005
147,2014-06-27,143.60416666666666,,338.87916666666666
147,2014-06-28,159.1291666666667,,357.8125
147,2014-06-29,178.88750000000005,,419.4000000000001
147,2014-06-30,157.42083333333332,,371.2375
147,2014-07-01,154.8125,,365.58333333333337
147,2014-07-02,153.49166666666665,,362.2583333333333
147,2014-07-03,143.5625,,339.8708333333333
147,2014-07-04,62.15416666666667,,147.6625
147,2014-07-05,185.75000000000003,,440.4375
147,2014-07-06,183.90833333333333,,433.9
147,2014-07-07,168.275,,397.0125
147,2014-07-08,142.91666666666669,,335.8166666666667
147,2014-07-09,143.52916666666667,,339.26666666666665
147,2014-07-10,141.85416666666669,,335.225
147,2014-07-11,156.96666666666667,,369.99583333333334
147,2014-07-12,170.42499999999998,,403.1208333333333
147,2014-07-13,112.95833333333331,,264.84166666666664
147,2014-07-14,78.75833333333333,,187.05833333333334
147,2014-07-15,72.13333333333334,,171.20416666666665
147,2014-07-16,116.89583333333333,,275.9916666666667
147,2014-07-17,123.425,,292.7375
147,2014-07-18,168.1375,,385.5333333333333
147,2014-07-19,92.84999999999998,,213.05416666666665
147,2014-07-20,154.89583333333334,,354.0041666666667
147,2014-07-21,155.34583333333333,,352.76666666666665
147,2014-07-22,152.3125,,359.86249999999995
147,2014-07-23,123.21250000000002,,291.3541666666667
147,2014-07-24,122.85416666666667,,279.9166666666667
147,2014-07-25,165.9375,,379.6291666666667
147,2014-07-26,110.94166666666665,,253.7958333333333
147,2014-07-27,102.42083333333333,,232.08749999999998
147,2014-07-28,124.63333333333334,,284.0291666666667
147,2014-07-29,132.13333333333335,,302.39166666666665
147,2014-07-30,160.32083333333335,,365.3416666666667
147,2014-07-31,128.28333333333333,,297.37916666666666
147,2014-08-01,93.90833333333332,,215.8875
147,2014-08-02,103.49166666666669,,236.42916666666667
147,2014-08-03,98.02916666666664,,224.34999999999997
147,2014-08-04,141.9,,324.72916666666663
147,2014-08-05,148.26666666666668,,334.9875
147,2014-08-06,125.80833333333332,,274.8875
147,2014-08-07,151.18333333333337,,324.6791666666667
147,2014-08-08,149.2458333333333,,321.4583333333333
147,2014-08-09,157.27083333333334,,356.35833333333335
147,2014-08-10,142.88750000000002,,317.6541666666667
147,2014-08-11,141.04583333333335,,302.6208333333334
147,2014-08-12,54.9375,,117.625
147,2014-08-13,79.07916666666667,,169.2625
147,2014-08-14,156.96666666666667,,337.70000000000005
147,2014-08-15,109.27500000000002,,235.98333333333335
147,2014-08-16,137.70833333333334,,295.47083333333336
147,2014-08-17,111.2625,,238.1
147,2014-08-18,150.72916666666666,,324.29999999999995
147,2014-08-19,141.66666666666666,,312.9708333333333
147,2014-08-20,140.41666666666669,,300.6
147,2014-08-21,113.90833333333336,,245.62500000000003
147,2014-08-22,108.40416666666668,,233.8166666666667
147,2014-08-23,93.46249999999999,,201.81666666666666
147,2014-08-24,150.0375,,320.04583333333335
147,2014-08-25,148.4958333333333,,331.0333333333333
147,2014-08-26,130.49999999999997,,278.91666666666663
147,2014-08-27,137.8875,,294.725
147,2014-08-28,146.77083333333334,,315.08333333333337
147,2014-08-29,150.95833333333334,,324.3208333333333
147,2014-08-30,79.50416666666668,,172.54166666666669
147,2014-08-31,85.2625,,183.3
147,2014-09-01,104.13333333333333,,223.7208333333333
147,2014-09-02,122.67500000000001,,262.5291666666667
147,2014-09-03,127.76249999999999,,273.70416666666665
147,2014-09-04,130.92083333333332,,280.5375
147,2014-09-05,33.28333333333333,,116.75833333333334
147,2014-09-06,95.37916666666666,,203.95416666666665
147,2014-09-07,131.325,,280.0333333333333
147,2014-09-08,84.31666666666666,,181.83333333333331
147,2014-09-09,62.91666666666666,,135.6375
147,2014-09-10,123.43750000000001,,263.75
147,2014-09-11,51.81249999999999,,110.47916666666666
147,2014-09-12,125.28333333333335,,267.34583333333336
147,2014-09-13,31.333333333333332,,67.04166666666667
147,2014-09-14,136.19583333333333,,292.14583333333337
147,2014-09-15,132.5666666666667,,283.4791666666667
147,2014-09-16,52.49583333333333,,111.10833333333333
147,2014-09-17,132.15,,281.6625
147,2014-09-18,113.2958333333333,,241.89166666666665
147,2014-09-19,125.05833333333334,,267.12083333333334
147,2014-09-20,87.46666666666668,,187.20000000000002
147,2014-09-21,48.37083333333334,,104.04166666666666
147,2014-09-22,117.54583333333333,,250.64999999999998
147,2014-09-23,124.80416666666663,,265.7708333333333
147,2014-09-24,84.0125,,181.10416666666666
147,2014-09-25,37.34583333333333,,80.46666666666667
147,2014-09-26,120.68333333333334,,257.04583333333335
147,2014-09-27,116.52083333333337,,248.05833333333337
147,2014-09-28,105.11250000000001,,223.94166666666666
147,2014-09-29,52.19583333333333,,112.08333333333333
147,2014-09-30,29.858333333333334,,63.92916666666667
147,2014-10-01,16.195833333333336,,34.38333333333334
147,2014-10-02,47.041666666666664,,100.51249999999999
147,2014-10-03,107.72916666666667,,229.42916666666667
147,2014-10-04,29.641666666666666,,61.47916666666667
147,2014-10-05,120.47916666666664,,256.0541666666667
147,2014-10-06,112.74166666666666,,239.20833333333331
147,2014-10-07,66.30833333333332,,141.83749999999998
147,2014-10-08,105.7333333333333,,224.07916666666665
147,2014-10-09,87.42500000000001,,187.13333333333333
147,2014-10-10,67.87083333333332,,145.9375
147,2014-10-11,19.025000000000002,,40.770833333333336
147,2014-10-12,108.35833333333333,,229.84583333333333
147,2014-10-13,29.920833333333334,,64.05000000000001
147,2014-10-14,96.76666666666667,,204.60416666666666
147,2014-10-15,51.59583333333333,,110.20416666666665
147,2014-10-16,53.262499999999996,,113.20833333333333
147,2014-10-17,91.30833333333334,,194.00833333333333
147,2014-10-18,46.82916666666668,,100.27916666666667
147,2014-10-19,90.46250000000002,,191.15000000000003
147,2014-10-20,82.82499999999999,,170.9375
147,2014-10-21,60.06666666666666,,128.05416666666667
147,2014-10-22,11.470833333333331,,24.391666666666666
147,2014-10-23,14.700000000000001,,31.133333333333333
147,2014-10-24,48.09583333333334,,103.40833333333333
147,2014-10-25,75.28333333333333,,175.42916666666667
147,2014-10-26,69.70416666666667,,149.3125
147,2014-10-27,91.38333333333333,,193.50833333333333
147,2014-10-28,37.67083333333333,,80.95416666666665
147,2014-10-29,47.95416666666666,,113.32916666666665
147,2014-10-30,75.02083333333333,,174.05833333333334
147,2014-10-31,35.62083333333333,,84.87916666666666
147,2014-11-01,7.570833333333333,,17.545833333333334
147,2014-11-02,78.7125,,183.50416666666666
147,2014-11-03,79.8875,,185.42083333333335
147,2014-11-04,73.5,,171.175
147,2014-11-05,26.291666666666668,,62.349999999999994
147,2014-11-06,5.291666666666665,,12.270833333333332
147,2014-11-07,54.849999999999994,,129.87916666666666
147,2014-11-08,71.86666666666667,,169.70833333333331
147,2014-11-09,50.537499999999994,,119.14166666666667
147,2014-11-10,69.06666666666665,,161.00416666666666
147,2014-11-11,48.96666666666667,,114.14166666666667
147,2014-11-12,27.754166666666666,,65.5
147,2014-11-13,46.79583333333333,,110.54999999999998
147,2014-11-14,66.99166666666667,,156.35833333333335
147,2014-11-15,62.25,,146.0125
147,2014-11-16,15.866666666666667,,38.00416666666666
147,2014-11-17,5.412499999999999,,12.604166666666664
147,2014-11-18,76.35833333333333,,176.0
147,2014-11-19,73.20416666666667,,168.71249999999998
147,2014-11-20,55.050000000000004,,127.73750000000001
147,2014-11-21,72.08749999999999,,165.85
147,2014-11-22,65.71249999999999,,152.45833333333331
147,2014-11-23,51.83333333333332,,120.35416666666666
147,2014-11-24,36.574999999999996,,84.38749999999999
147,2014-11-25,24.1125,,57.47500000000001
147,2014-11-26,2.4291666666666667,,5.1
147,2014-11-27,17.67083333333333,,41.5
147,2014-11-28,51.658333333333324,,119.84166666666667
147,2014-11-29,30.82916666666667,,73.05
147,2014-11-30,35.654166666666676,,83.74166666666667
147,2014-12-01,36.91666666666668,,86.70833333333334
147,2014-12-02,14.216666666666667,,33.5
147,2014-12-03,9.920833333333333,,23.15416666666667
147,2014-12-04,54.862500000000004,,127.03333333333333
147,2014-12-05,17.920833333333334,,42.46666666666667
147,2014-12-06,4.95,,11.354166666666666
147,2014-12-07,62.28333333333334,,142.96666666666667
147,2014-12-08,17.354166666666668,,41.270833333333336
147,2014-12-09,3.7874999999999996,,8.3125
147,2014-12-10,20.670833333333334,,48.983333333333334
147,2014-12-11,20.058333333333334,,44.829166666666666
147,2014-12-12,47.51666666666667,,109.88333333333334
147,2014-12-13,54.054166666666674,,124.02083333333334
147,2014-12-14,27.004166666666666,,62.52083333333333
147,2014-12-15,54.88333333333333,,125.20416666666668
147,2014-12-16,16.375,,38.79166666666667
147,2014-12-17,36.4375,,85.49583333333334
147,2014-12-18,33.31666666666667,,77.9
147,2014-12-19,40.94166666666666,,94.79999999999998
147,2014-12-20,12.870833333333335,,30.508333333333333
147,2014-12-21,15.995833333333332,,38.041666666666664
147,2014-12-22,12.116666666666665,,28.84583333333333
147,2014-12-23,8.862499999999999,,20.770833333333332
147,2014-12-24,5.291666666666667,,12.241666666666667
147,2014-12-25,37.55833333333333,,87.13333333333333
147,2014-12-26,56.979166666666664,,129.80833333333334
147,2014-12-27,50.237500000000004,,117.19166666666666
147,2014-12-28,20.929166666666667,,49.575
147,2014-12-29,45.958333333333336,,107.10000000000001
147,2014-12-30,32.9875,,78.17916666666666
147,2014-12-31,53.24583333333334,,124.29583333333333
147,2015-01-01,57.512499999999996,,131.57083333333333
147,2015-01-02,50.45416666666668,,116.77500000000002
147,2015-01-03,14.912499999999996,,35.47083333333333
147,2015-01-04,10.362499999999999,,24.12083333333333
147,2015-01-05,62.012499999999996,,141.6375
147,2015-01-06,2.15,,4.754166666666666
147,2015-01-07,39.6,,91.7625
147,2015-01-08,62.5375,,146.17916666666667
147,2015-01-09,28.191666666666666,,55.57083333333333
147,2015-01-10,62.63333333333333,,135.7625
147,2015-01-11,38.9,,90.75
147,2015-01-12,5.016666666666667,,11.483333333333333
147,2015-01-13,66.98333333333333,,110.51666666666667
147,2015-01-14,38.50833333333333,,67.23333333333333
147,2015-01-15,54.77916666666667,,91.20833333333334
147,2015-01-16,59.525,,98.27083333333333
147,2015-01-17,67.34166666666667,,110.85
147,2015-01-18,2.6333333333333333,,4.2
147,2015-01-19,37.25416666666667,,62.15833333333334